Time,TemperatureF,DewpointF,PressureIn,WindDirection,WindDirectionDegrees,WindSpeedMPH,WindSpeedGustMPH,Humidity,HourlyPrecipIn,Conditions,Clouds,dailyrainin,SoftwareType,DateUTC
2013-01-12 00:06:00,46.0,44.0,29.09,SSE,162,3.0,6.0,92,0.00,,,0.00,weatherlink.com 1.10,2013-01-12 05:06:00,
2013-01-12 00:21:00,45.7,44.0,29.09,SSE,162,1.0,7.0,93,0.00,,,0.00,weatherlink.com 1.10,2013-01-12 05:21:00,
2013-01-12 00:36:00,45.7,44.0,29.08,SE,129,5.0,6.0,93,0.00,,,0.00,weatherlink.com 1.10,2013-01-12 05:36:00,
2013-01-12 00:51:00,45.7,44.0,29.07,South,169,3.0,5.0,93,0.00,,,0.00,weatherlink.com 1.10,2013-01-12 05:51:00,
2013-01-12 01:21:00,45.4,44.0,29.07,SSE,160,3.0,8.0,93,0.00,,,0.00,weatherlink.com 1.10,2013-01-12 06:21:00,
2013-01-12 01:36:00,45.0,43.0,29.06,SSE,150,1.0,6.0,93,0.00,,,0.00,weatherlink.com 1.10,2013-01-12 06:36:00,
2013-01-12 01:51:00,44.8,43.0,29.07,SSE,162,2.0,4.0,94,0.00,,,0.00,weatherlink.com 1.10,2013-01-12 06:51:00,
2013-01-12 02:06:00,44.6,43.0,29.07,SSE,162,0.0,4.0,94,0.00,,,0.00,weatherlink.com 1.10,2013-01-12 07:06:00,
2013-01-12 02:21:00,44.4,43.0,29.08,SSE,166,3.0,4.0,95,0.00,,,0.00,weatherlink.com 1.10,2013-01-12 07:21:00,
2013-01-12 02:38:00,44.8,44.0,29.07,South,183,1.0,6.0,95,0.00,,,0.00,weatherlink.com 1.10,2013-01-12 07:38:00,
2013-01-12 02:51:00,45.0,43.0,29.08,South,179,2.0,6.0,94,0.00,,,0.00,weatherlink.com 1.10,2013-01-12 07:51:00,
2013-01-12 03:06:00,44.9,44.0,29.08,South,191,4.0,6.0,95,0.00,,,0.00,weatherlink.com 1.10,2013-01-12 08:06:00,
2013-01-12 03:21:00,45.0,43.0,29.07,SSE,148,4.0,6.0,94,0.00,,,0.00,weatherlink.com 1.10,2013-01-12 08:21:00,
2013-01-12 03:36:00,45.2,44.0,29.08,SE,146,3.0,7.0,94,0.00,,,0.00,weatherlink.com 1.10,2013-01-12 08:36:00,
2013-01-12 03:51:00,45.5,44.0,29.07,South,183,2.0,5.0,94,0.00,,,0.00,weatherlink.com 1.10,2013-01-12 08:51:00,
2013-01-12 04:06:00,45.5,44.0,29.07,South,174,1.0,6.0,94,0.00,,,0.00,weatherlink.com 1.10,2013-01-12 09:06:00,
2013-01-12 04:21:00,45.9,45.0,29.06,WSW,242,5.0,7.0,95,0.00,,,0.00,weatherlink.com 1.10,2013-01-12 09:21:00,
2013-01-12 04:36:00,46.3,45.0,29.06,SSW,205,2.0,7.0,94,0.00,,,0.00,weatherlink.com 1.10,2013-01-12 09:36:00,
2013-01-12 04:51:00,46.4,45.0,29.06,SSW,201,2.0,7.0,93,0.00,,,0.00,weatherlink.com 1.10,2013-01-12 09:51:00,
2013-01-12 05:06:00,46.4,45.0,29.06,SW,224,7.0,8.0,93,0.00,,,0.00,weatherlink.com 1.10,2013-01-12 10:06:00,
2013-01-12 05:21:00,46.7,45.0,29.05,SW,222,8.0,8.0,93,0.00,,,0.00,weatherlink.com 1.10,2013-01-12 10:21:00,
2013-01-12 05:36:00,47.0,45.0,29.06,SW,214,5.0,9.0,93,0.00,,,0.00,weatherlink.com 1.10,2013-01-12 10:36:00,
2013-01-12 05:51:00,47.3,45.0,29.05,SSW,198,2.0,8.0,93,0.00,,,0.00,weatherlink.com 1.10,2013-01-12 10:51:00,
2013-01-12 06:06:00,47.6,45.0,29.06,SSW,198,6.0,8.0,92,0.00,,,0.00,weatherlink.com 1.10,2013-01-12 11:06:00,
2013-01-12 06:22:00,47.8,46.0,29.06,SW,231,7.0,9.0,92,0.00,,,0.00,weatherlink.com 1.10,2013-01-12 11:22:00,
2013-01-12 06:36:00,47.8,45.0,29.06,SSE,150,4.0,8.0,91,0.00,,,0.00,weatherlink.com 1.10,2013-01-12 11:36:00,
2013-01-12 06:51:00,47.7,45.0,29.07,SSW,200,6.0,9.0,91,0.00,,,0.00,weatherlink.com 1.10,2013-01-12 11:51:00,
2013-01-12 07:06:00,47.5,45.0,29.07,SSW,194,2.0,8.0,91,0.00,,,0.00,weatherlink.com 1.10,2013-01-12 12:06:00,
2013-01-12 07:21:00,47.2,45.0,29.08,SW,215,5.0,6.0,91,0.00,,,0.00,weatherlink.com 1.10,2013-01-12 12:21:00,
2013-01-12 07:36:00,47.3,45.0,29.08,SW,228,4.0,10.0,91,0.00,,,0.00,weatherlink.com 1.10,2013-01-12 12:36:00,
2013-01-12 07:52:00,47.5,45.0,29.08,South,174,4.0,10.0,91,0.00,,,0.00,weatherlink.com 1.10,2013-01-12 12:52:00,
2013-01-12 08:07:00,47.6,45.0,29.09,SSW,212,2.0,7.0,91,0.00,,,0.00,weatherlink.com 1.10,2013-01-12 13:07:00,
2013-01-12 08:22:00,47.6,45.0,29.09,SSW,194,4.0,8.0,90,0.00,,,0.00,weatherlink.com 1.10,2013-01-12 13:22:00,
2013-01-12 08:37:00,47.8,45.0,29.09,SSW,208,6.0,10.0,90,0.00,,,0.00,weatherlink.com 1.10,2013-01-12 13:37:00,
2013-01-12 08:52:00,48.1,45.0,29.11,SSW,207,3.0,8.0,89,0.00,,,0.00,weatherlink.com 1.10,2013-01-12 13:52:00,
2013-01-12 09:07:00,48.7,46.0,29.11,SSW,196,5.0,15.0,89,0.00,,,0.00,weatherlink.com 1.10,2013-01-12 14:07:00,
2013-01-12 09:22:00,48.9,46.0,29.11,South,175,5.0,13.0,88,0.00,,,0.00,weatherlink.com 1.10,2013-01-12 14:22:00,
2013-01-12 09:37:00,49.4,46.0,29.12,SW,218,12.0,16.0,87,0.00,,,0.00,weatherlink.com 1.10,2013-01-12 14:37:00,
2013-01-12 09:52:00,49.6,46.0,29.11,SSW,204,4.0,15.0,87,0.00,,,0.00,weatherlink.com 1.10,2013-01-12 14:52:00,
2013-01-12 10:07:00,49.8,46.0,29.12,SSW,194,10.0,15.0,87,0.00,,,0.00,weatherlink.com 1.10,2013-01-12 15:07:00,
2013-01-12 10:22:00,50.5,47.0,29.11,SSW,203,5.0,14.0,86,0.00,,,0.00,weatherlink.com 1.10,2013-01-12 15:22:00,
2013-01-12 10:37:00,50.9,47.0,29.12,SSW,212,6.0,17.0,85,0.00,,,0.00,weatherlink.com 1.10,2013-01-12 15:37:00,
2013-01-12 10:52:00,52.2,48.0,29.12,SW,225,4.0,18.0,84,0.00,,,0.00,weatherlink.com 1.10,2013-01-12 15:52:00,
2013-01-12 11:07:00,53.0,48.0,29.13,SW,226,8.0,15.0,82,0.00,,,0.00,weatherlink.com 1.10,2013-01-12 16:07:00,
2013-01-12 11:22:00,53.2,48.0,29.12,SW,229,8.0,19.0,82,0.00,,,0.00,weatherlink.com 1.10,2013-01-12 16:22:00,
2013-01-12 11:37:00,54.2,48.0,29.11,SSW,196,6.0,15.0,80,0.00,,,0.00,weatherlink.com 1.10,2013-01-12 16:37:00,
2013-01-12 11:52:00,55.1,49.0,29.11,SW,233,10.0,15.0,79,0.00,,,0.00,weatherlink.com 1.10,2013-01-12 16:52:00,
2013-01-12 12:22:00,55.1,49.0,29.11,South,169,4.0,14.0,79,0.00,,,0.00,weatherlink.com 1.10,2013-01-12 17:22:00,
2013-01-12 12:37:00,55.1,49.0,29.10,South,185,7.0,16.0,79,0.00,,,0.00,weatherlink.com 1.10,2013-01-12 17:37:00,
2013-01-12 12:52:00,55.1,49.0,29.11,SW,224,15.0,16.0,79,0.00,,,0.00,weatherlink.com 1.10,2013-01-12 17:52:00,
2013-01-12 13:07:00,55.8,49.0,29.10,SSW,211,6.0,19.0,78,0.00,,,0.00,weatherlink.com 1.10,2013-01-12 18:07:00,
2013-01-12 13:22:00,55.5,49.0,29.10,SSW,196,3.0,15.0,78,0.00,,,0.00,weatherlink.com 1.10,2013-01-12 18:22:00,
2013-01-12 13:37:00,56.9,49.0,29.11,SW,214,9.0,12.0,76,0.00,,,0.00,weatherlink.com 1.10,2013-01-12 18:37:00,
2013-01-12 13:52:00,57.3,49.0,29.12,SW,225,4.0,10.0,73,0.00,,,0.00,weatherlink.com 1.10,2013-01-12 18:52:00,
2013-01-12 14:07:00,57.1,42.0,29.13,SW,225,9.0,21.0,58,0.00,,,0.00,weatherlink.com 1.10,2013-01-12 19:07:00,
2013-01-12 14:22:00,56.8,41.0,29.14,WSW,242,11.0,18.0,56,0.00,,,0.00,weatherlink.com 1.10,2013-01-12 19:22:00,
2013-01-12 14:37:00,56.7,41.0,29.13,SSW,201,8.0,15.0,57,0.00,,,0.00,weatherlink.com 1.10,2013-01-12 19:37:00,
2013-01-12 14:52:00,56.3,41.0,29.15,WSW,248,8.0,15.0,57,0.00,,,0.00,weatherlink.com 1.10,2013-01-12 19:52:00,
2013-01-12 15:08:00,55.8,39.0,29.15,SW,232,7.0,16.0,54,0.00,,,0.00,weatherlink.com 1.10,2013-01-12 20:08:00,
2013-01-12 15:23:00,55.4,39.0,29.16,SSW,208,6.0,14.0,55,0.00,,,0.00,weatherlink.com 1.10,2013-01-12 20:23:00,
2013-01-12 15:38:00,55.1,38.0,29.17,SSW,203,5.0,15.0,53,0.00,,,0.00,weatherlink.com 1.10,2013-01-12 20:38:00,
2013-01-12 15:53:00,55.0,39.0,29.18,SW,233,13.0,13.0,55,0.00,,,0.00,weatherlink.com 1.10,2013-01-12 20:53:00,
2013-01-12 16:08:00,54.5,39.0,29.17,WSW,242,10.0,12.0,57,0.00,,,0.00,weatherlink.com 1.10,2013-01-12 21:08:00,
2013-01-12 16:23:00,53.9,38.0,29.17,SW,225,6.0,15.0,55,0.00,,,0.00,weatherlink.com 1.10,2013-01-12 21:23:00,
2013-01-12 16:38:00,53.4,37.0,29.18,SSW,211,8.0,10.0,55,0.00,,,0.00,weatherlink.com 1.10,2013-01-12 21:38:00,
2013-01-12 16:53:00,53.1,37.0,29.18,SSW,198,4.0,12.0,54,0.00,,,0.00,weatherlink.com 1.10,2013-01-12 21:53:00,
2013-01-12 17:08:00,52.6,36.0,29.18,WSW,246,7.0,14.0,53,0.00,,,0.00,weatherlink.com 1.10,2013-01-12 22:08:00,
2013-01-12 17:23:00,51.7,35.0,29.20,South,186,2.0,12.0,54,0.00,,,0.00,weatherlink.com 1.10,2013-01-12 22:23:00,
2013-01-12 17:38:00,50.3,36.0,29.20,WSW,242,3.0,10.0,59,0.00,,,0.00,weatherlink.com 1.10,2013-01-12 22:38:00,
2013-01-12 17:53:00,49.7,36.0,29.22,SSW,205,2.0,8.0,59,0.00,,,0.00,weatherlink.com 1.10,2013-01-12 22:53:00,
2013-01-12 18:08:00,49.3,35.0,29.22,SW,232,7.0,8.0,59,0.00,,,0.00,weatherlink.com 1.10,2013-01-12 23:08:00,
2013-01-12 18:23:00,49.2,34.0,29.21,WSW,243,4.0,9.0,57,0.00,,,0.00,weatherlink.com 1.10,2013-01-12 23:23:00,
2013-01-12 18:38:00,49.4,33.0,29.21,WSW,242,4.0,12.0,54,0.00,,,0.00,weatherlink.com 1.10,2013-01-12 23:38:00,
2013-01-12 18:53:00,49.2,32.0,29.20,SW,232,4.0,8.0,52,0.00,,,0.00,weatherlink.com 1.10,2013-01-12 23:53:00,
2013-01-12 19:08:00,49.0,31.0,29.21,SW,233,6.0,11.0,51,0.00,,,0.00,weatherlink.com 1.10,2013-01-13 00:08:00,
2013-01-12 19:23:00,48.6,32.0,29.21,WSW,256,5.0,9.0,53,0.00,,,0.00,weatherlink.com 1.10,2013-01-13 00:23:00,
2013-01-12 19:38:00,48.1,32.0,29.21,SW,218,4.0,7.0,55,0.00,,,0.00,weatherlink.com 1.10,2013-01-13 00:38:00,
2013-01-12 19:53:00,47.5,31.0,29.21,WSW,243,6.0,8.0,54,0.00,,,0.00,weatherlink.com 1.10,2013-01-13 00:53:00,
2013-01-12 20:08:00,46.9,31.0,29.22,WSW,245,4.0,11.0,55,0.00,,,0.00,weatherlink.com 1.10,2013-01-13 01:08:00,
2013-01-12 20:23:00,46.4,31.0,29.22,SW,214,2.0,9.0,56,0.00,,,0.00,weatherlink.com 1.10,2013-01-13 01:23:00,
2013-01-12 20:38:00,45.9,31.0,29.22,SW,226,3.0,8.0,57,0.00,,,0.00,weatherlink.com 1.10,2013-01-13 01:38:00,
2013-01-12 20:53:00,45.4,32.0,29.22,SW,233,4.0,9.0,59,0.00,,,0.00,weatherlink.com 1.10,2013-01-13 01:53:00,
2013-01-12 21:08:00,44.9,32.0,29.21,SW,232,1.0,6.0,61,0.00,,,0.00,weatherlink.com 1.10,2013-01-13 02:08:00,
2013-01-12 21:23:00,44.5,32.0,29.21,WSW,252,4.0,6.0,62,0.00,,,0.00,weatherlink.com 1.10,2013-01-13 02:23:00,
2013-01-12 21:38:00,44.0,32.0,29.20,SW,231,3.0,4.0,63,0.00,,,0.00,weatherlink.com 1.10,2013-01-13 02:38:00,
2013-01-12 21:53:00,43.7,33.0,29.20,SW,217,2.0,4.0,65,0.00,,,0.00,weatherlink.com 1.10,2013-01-13 02:53:00,
2013-01-12 22:08:00,43.3,33.0,29.18,WSW,257,2.0,3.0,66,0.00,,,0.00,weatherlink.com 1.10,2013-01-13 03:08:00,
2013-01-12 22:23:00,42.9,33.0,29.22,SSE,165,1.0,4.0,67,0.00,,,0.00,weatherlink.com 1.10,2013-01-13 03:23:00,
2013-01-12 22:38:00,42.8,32.0,29.20,SW,228,1.0,3.0,67,0.00,,,0.00,weatherlink.com 1.10,2013-01-13 03:38:00,
2013-01-12 22:53:00,42.6,33.0,29.21,West,273,1.0,2.0,68,0.00,,,0.00,weatherlink.com 1.10,2013-01-13 03:53:00,
2013-01-12 23:08:00,42.2,33.0,29.21,SW,221,1.0,9.0,69,0.00,,,0.00,weatherlink.com 1.10,2013-01-13 04:08:00,
2013-01-12 23:23:00,42.0,34.0,29.24,West,259,0.0,3.0,73,0.00,,,0.00,weatherlink.com 1.10,2013-01-13 04:23:00,
2013-01-12 23:38:00,41.3,33.0,29.23,West,259,5.0,6.0,73,0.00,,,0.00,weatherlink.com 1.10,2013-01-13 04:38:00,
2013-01-12 23:53:00,40.7,34.0,29.23,West,275,1.0,4.0,77,0.00,,,0.00,weatherlink.com 1.10,2013-01-13 04:53:00,